Location: Home
(42.5358°N, 72.7383°W)
Time: 03:10:49
(UTC-04:00)

Vanguard 1 - Pass Details

Date: 02 June 2022
Orbit: 649 x 3832 km, 34.2° (Epoch: 24 June)

Event Time Altitude Azimuth Distance (km) Brightness Sun altitude
Rises 03:10:47 0° 265° (W) 5,305 13.4 -17.5°
Reaches altitude 10° 03:13:40 10° 262° (W) 4,640 13.1 -17.2°
Maximum altitude 03:27:45 64° 186° (S) 3,329 12.4 -15.6°
Drops below altitude 10° 03:50:05 10° 112° (ESE) 6,930 14.6 -13.0°
Sets 03:55:38 0° 110° (ESE) 7,951 15.0 -12.3°
